Norfolk, NE

7:55 AM CDT on May 24, 2018 (GMT -0500)
Stefan Memorial

Weather History for KOFK - April, 2014

Change the Weather History Date:

Friday, April 11, 2014

  Actual Average Record
Temperature  
Mean Temperature 57 °F 48 °F  
Max Temperature 76 °F 60 °F 88 °F (1916)
Min Temperature 37 °F 36 °F 18 °F (1957)
Degree Days  
Heating Degree Days 8 17  
Month to date heating degree days 207 212  
Since 1 July heating degree days 6501 6161  
Cooling Degree Days 0 0  
Month to date cooling degree days 0 0  
Year to date cooling degree days 0 0  
Growing Degree Days 6 (Base 50)    
Moisture  
Dew Point 29 °F    
Average Humidity 47    
Maximum Humidity 79    
Minimum Humidity 14    
Precipitation  
Precipitation 0.00 in 0.08 in 1.72 in (1920)
Month to date precipitation 0.84 0.86  
Year to date precipitation 1.77 3.98  
Snow  
Snow 0.00 in 0.10 in - ()
Month to date snowfall 3.0 1.3  
Since 1 July snowfall 18.4 29.2  
Snow Depth 0.00 in    
Sea Level Pressure  
Sea Level Pressure 29.91 in    
Wind  
Wind Speed 10 mph (SSW)    
Max Wind Speed 22 mph    
Max Gust Speed 28 mph    
Visibility 10 miles    
Events      
T = Trace of Precipitation, MM = Missing Value Source: NWS Daily Summary

Daily Weather History Graph

Daily Weather History Graph

Search for Another Location

Airport or City:

Astronomy

Apr. 11, 2014 Rise Set
Actual Time 6:55 AM CDT 8:06 PM CDT
Civil Twilight 6:26 AM CDT 8:35 PM CDT
Nautical Twilight 5:52 AM CDT 9:09 PM CDT
Astronomical Twilight 5:16 AM CDT 9:45 PM CDT
Moon 4:45 PM CDT (4/11) 4:55 AM CDT (4/11)
Length of Visible Light 14h 08m
Length of Day
13h 10m
Waxing Gibbous, 87% of the Moon is Illuminated
Apr 11
Waxing Gibbous
Apr 15
Full
Apr 22
Last Quarter
Apr 29
New
May 6
First Quarter

Hourly Weather History & Observations

Time (CDT) Temp. Windchill Dew Point Humidity Pressure Visibility Wind Dir Wind Speed Gust Speed Precip Events Conditions
12:56 AM 50.0 °F - 25.0 °F 38% 29.99 in 10.0 mi South 10.4 mph - N/A   Clear
1:56 AM 50.0 °F - 26.1 °F 39% 29.97 in 10.0 mi South 12.7 mph - N/A   Clear
2:56 AM 48.9 °F - 27.0 °F 43% 29.98 in 10.0 mi SW 8.1 mph - N/A   Mostly Cloudy
3:56 AM 45.0 °F 41.8 °F 30.0 °F 56% 29.97 in 10.0 mi WSW 5.8 mph - N/A   Partly Cloudy
4:56 AM 43.0 °F - 33.1 °F 68% 29.97 in 10.0 mi Calm Calm - N/A   Clear
5:56 AM 39.9 °F - 33.1 °F 77% 29.99 in 10.0 mi Calm Calm - N/A   Clear
6:56 AM 42.1 °F 40.2 °F 34.0 °F 73% 30.01 in 10.0 mi SSW 3.5 mph - N/A   Clear
7:56 AM 46.9 °F - 36.0 °F 66% 30.01 in 10.0 mi SW 10.4 mph - N/A   Clear
8:56 AM 54.0 °F - 33.1 °F 45% 30.01 in 10.0 mi WSW 8.1 mph - N/A   Clear
9:56 AM 63.0 °F - 28.0 °F 27% 30.01 in 10.0 mi West 17.3 mph - N/A   Clear
10:56 AM 66.9 °F - 27.0 °F 22% 30.01 in 10.0 mi WSW 16.1 mph 27.6 mph N/A   Clear
11:56 AM 70.0 °F - 28.0 °F 21% 29.99 in 10.0 mi WSW 12.7 mph - N/A   Clear
12:56 PM 72.0 °F - 24.1 °F 17% 29.95 in 10.0 mi Variable 6.9 mph 18.4 mph N/A   Clear
1:56 PM 73.0 °F - 21.9 °F 15% 29.93 in 10.0 mi SW 9.2 mph - N/A   Clear
2:56 PM 75.0 °F - 24.1 °F 15% 29.90 in 10.0 mi SW 12.7 mph - N/A   Clear
3:56 PM 75.0 °F - 25.0 °F 16% 29.88 in 10.0 mi SSW 11.5 mph 17.3 mph N/A   Clear
4:56 PM 75.0 °F - 28.9 °F 18% 29.84 in 10.0 mi Variable 6.9 mph 21.9 mph N/A   Clear
5:56 PM 75.9 °F - 30.0 °F 19% 29.82 in 10.0 mi SSW 11.5 mph - N/A   Clear
6:56 PM 73.9 °F - 30.9 °F 21% 29.80 in 10.0 mi South 12.7 mph - N/A   Clear
7:56 PM 68.0 °F - 30.9 °F 25% 29.80 in 10.0 mi South 8.1 mph - N/A   Clear
8:56 PM 64.9 °F - 33.1 °F 31% 29.79 in 10.0 mi SSE 10.4 mph - N/A   Partly Cloudy
9:56 PM 63.0 °F - 32.0 °F 31% 29.77 in 10.0 mi SSE 12.7 mph - N/A   Clear
10:56 PM 64.0 °F - 32.0 °F 30% 29.74 in 10.0 mi South 13.8 mph - N/A   Clear
11:56 PM 63.0 °F - 32.0 °F 31% 29.70 in 5.0 mi South 18.4 mph - N/A   Haze